K7NDG Weather Reports


time (UTC)temp
F
wind
direction
speed
knots
gust
knots
rain 1hr
in
rain 24hr
in
rain mn
in
humidity
%
barometer
mb
20260505005957 64 232 0.9 5.2 0.00 0.00 0.00 69 1012.7
20260505005454 64 295 4.3 6.1 0.00 0.00 0.00 69 1012.9
20260505004952 64 295 0.0 7.0 0.00 0.00 0.00 69 1013.0
20260505004448 65 192 0.0 7.0 0.00 0.00 0.00 68 1012.9
20260505003945 65 163 0.0 3.5 0.00 0.00 0.00 68 1012.7
20260505003442 65 301 0.0 7.0 0.00 0.00 0.00 68 1012.9
20260505002939 65 311 1.7 3.5 0.00 0.00 0.00 68 1013.1
20260505002435 66 295 2.6 5.2 0.00 0.00 0.00 67 1012.9
20260505001933 66 282 2.6 3.5 0.00 0.00 0.00 67 1012.7
20260505001431 66 237 2.6 11.3 0.00 0.00 0.00 66 1012.7
20260505000927 66 235 6.1 6.1 0.00 0.00 0.00 66 1012.8
20260505000428 67 239 1.7 7.8 0.00 0.00 0.00 64 1012.6
20260504235922 67 249 0.9 4.3 0.00 0.00 0.00 66 1012.7
20260504235420 67 248 3.5 6.1 0.00 0.00 0.00 65 1012.8
20260504234915 67 122 2.6 5.2 0.00 0.00 0.00 66 1012.5
20260504234413 68 267 1.7 7.8 0.00 0.00 0.00 65 1012.7
20260504233909 68 234 1.7 7.8 0.00 0.00 0.00 64 1012.8
20260504233405 68 197 0.9 6.1 0.00 0.00 0.00 64 1012.7
20260504232902 69 273 0.0 7.0 0.00 0.00 0.00 62 1012.8
20260504232359 69 266 2.6 7.8 0.00 0.00 0.00 62 1012.5
20260504231856 69 180 0.9 6.1 0.00 0.00 0.00 62 1012.6
20260504231352 70 267 3.5 7.8 0.00 0.00 0.00 60 1012.7
20260504230849 70 235 3.5 9.6 0.00 0.00 0.00 60 1012.7
20260504230346 70 249 2.6 3.5 0.00 0.00 0.00 62 1012.5
20260504225845 70 231 3.5 7.8 0.00 0.00 0.00 61 1012.5
20260504225341 70 260 1.7 2.6 0.00 0.00 0.00 60 1012.4
20260504224839 71 249 2.6 5.2 0.00 0.00 0.00 59 1012.7
20260504224335 71 212 2.6 6.1 0.00 0.00 0.00 61 1012.8
20260504223832 71 251 3.5 8.7 0.00 0.00 0.00 60 1012.8
20260504223327 71 248 0.0 3.5 0.00 0.00 0.00 58 1012.7
20260504222824 71 239 2.6 5.2 0.00 0.00 0.00 59 1012.6
20260504222321 71 242 4.3 11.3 0.00 0.00 0.00 59 1012.7
20260504221820 72 256 7.0 10.4 0.00 0.00 0.00 58 1012.5
20260504221316 72 272 3.5 7.0 0.00 0.00 0.00 59 1012.7
20260504220813 72 210 0.9 6.1 0.00 0.00 0.00 59 1012.7
20260504220310 72 266 3.5 5.2 0.00 0.00 0.00 59 1012.6
20260504215808 71 277 0.0 2.6 0.00 0.00 0.00 60 1012.5
20260504215304 72 234 2.6 3.5 0.00 0.00 0.00 59 1012.5
20260504214759 72 233 2.6 6.1 0.00 0.00 0.00 60 1012.9
20260504214256 72 259 2.6 6.1 0.00 0.00 0.00 60 1012.9
20260504213753 72 224 2.6 5.2 0.00 0.00 0.00 60 1013.0
20260504213249 72 246 0.0 5.2 0.00 0.00 0.00 58 1012.7
20260504212746 72 38 0.0 7.8 0.00 0.00 0.00 59 1012.7
20260504212243 72 243 2.6 6.1 0.00 0.00 0.00 60 1012.7
20260504211740 72 218 2.6 9.6 0.00 0.00 0.00 60 1012.9
20260504211236 72 216 1.7 3.5 0.00 0.00 0.00 60 1012.9
20260504210734 72 252 0.0 1.7 0.00 0.00 0.00 60 1013.1
20260504210231 72 218 2.6 4.3 0.00 0.00 0.00 60 1013.0
20260504205728 71 253 1.7 6.1 0.00 0.00 0.00 61 1012.6
20260504205226 72 245 3.5 6.1 0.00 0.00 0.00 60 1012.9
20260504204724 72 251 2.6 6.1 0.00 0.00 0.00 59 1013.1
20260504204222 72 217 2.6 2.6 0.00 0.00 0.00 60 1013.1
20260504203721 72 114 0.0 2.6 0.00 0.00 0.00 61 1013.1
20260504203218 71 126 2.6 4.3 0.00 0.00 0.00 60 1013.2
20260504202718 71 297 0.9 6.1 0.00 0.00 0.00 60 1013.0
20260504202215 71 249 4.3 7.0 0.00 0.00 0.00 59 1013.1
20260504201712 72 119 0.9 2.6 0.00 0.00 0.00 60 1013.0
20260504201209 71 266 3.5 3.5 0.00 0.00 0.00 60 1013.1
20260504200707 71 246 0.9 5.2 0.00 0.00 0.00 61 1013.1
20260504200203 71 222 1.7 5.2 0.00 0.00 0.00 61 1013.3
20260504195659 71 251 4.3 7.8 0.00 0.00 0.00 63 1012.9
20260504195155 70 192 0.0 4.3 0.00 0.00 0.00 63 1013.1
20260504194653 70 253 1.7 5.2 0.00 0.00 0.00 62 1013.0
20260504194148 70 266 2.6 5.2 0.00 0.00 0.00 63 1013.2
20260504193645 70 243 1.7 6.1 0.00 0.00 0.00 63 1013.2
20260504193143 70 283 7.0 7.0 0.00 0.00 0.00 65 1012.9
20260504192641 69 186 0.0 3.5 0.00 0.00 0.00 65 1013.2
20260504192139 69 255 0.0 6.1 0.00 0.00 0.00 65 1013.2
20260504191637 69 238 4.3 4.3 0.00 0.00 0.00 64 1013.2
20260504191133 69 237 1.7 2.6 0.00 0.00 0.00 65 1013.2
20260504190629 69 115 1.7 4.3 0.00 0.00 0.00 66 1013.3
20260504190126 68 265 4.3 5.2 0.00 0.00 0.00 66 1013.5
20260504185622 68 221 1.7 5.2 0.00 0.00 0.00 64 1013.4
20260504185119 68 263 0.9 5.2 0.00 0.00 0.00 65 1013.5
20260504184615 67 206 0.9 4.3 0.00 0.00 0.00 68 1013.5
20260504184110 66 218 1.7 4.3 0.00 0.00 0.00 69 1013.5
20260504183607 65 261 0.9 4.3 0.00 0.00 0.00 69 1013.5
20260504183105 65 260 1.7 6.1 0.00 0.00 0.00 70 1013.5
20260504182602 65 228 1.7 3.5 0.00 0.00 0.00 68 1013.8
20260504182100 65 196 1.7 5.2 0.00 0.00 0.00 70 1013.7
20260504181556 65 274 1.7 4.3 0.00 0.00 0.00 69 1013.6
20260504181054 64 262 3.5 3.5 0.00 0.00 0.00 72 1013.7
20260504180552 64 212 0.9 5.2 0.00 0.00 0.00 72 1013.6
20260504180052 63 268 0.0 6.1 0.00 0.00 0.00 73 1013.5
20260504175548 62 207 1.7 4.3 0.00 0.00 0.00 74 1013.6
20260504175045 62 252 0.0 1.7 0.00 0.00 0.00 74 1013.8
20260504174543 62 259 1.7 2.6 0.00 0.00 0.00 74 1013.7
20260504174040 61 197 0.0 4.3 0.00 0.00 0.00 75 1013.7
20260504173537 61 192 1.7 1.7 0.00 0.00 0.00 75 1013.4
20260504173034 61 249 0.9 5.2 0.00 0.00 0.00 75 1013.4
20260504172530 60 192 0.0 1.7 0.00 0.00 0.00 75 1013.5
20260504172027 60 234 2.6 3.5 0.00 0.00 0.00 77 1013.6
20260504171524 60 250 2.6 4.3 0.00 0.00 0.00 76 1013.5
20260504171021 60 274 1.7 4.3 0.00 0.00 0.00 77 1013.6
20260504170516 59 282 1.7 5.2 0.00 0.00 0.00 78 1013.6
20260504160437 57 290 0.0 2.6 0.00 0.00 0.00 82 1013.2
20260504150901 56 306 0.0 1.7 0.00 0.00 0.00 85 1012.8
20260504150358 56 301 0.0 2.6 0.00 0.00 0.00 85 1012.7
20260504141327 55 12 0.0 4.3 0.00 0.00 0.00 87 1012.6
20260504140824 55 258 0.9 2.6 0.00 0.00 0.00 87 1012.4
20260504140319 55 253 2.6 4.3 0.00 0.00 0.00 87 1012.5
20260504130748 54 258 2.6 3.5 0.00 0.00 0.00 87 1011.9
20260504130244 54 265 0.9 5.2 0.00 0.00 0.00 87 1011.6
20260504120208 53 282 0.0 1.7 0.00 0.00 0.00 87 1011.2
20260504110635 54 282 0.0 1.7 0.00 0.00 0.00 84 1010.8
20260504110131 54 294 0.9 2.6 0.00 0.00 0.00 84 1010.9
20260504100551 54 297 0.0 0.9 0.00 0.00 0.00 83 1010.5
20260504081945 56 343 0.0 0.9 0.00 0.00 0.00 75 1009.6
20260504081442 56 343 0.0 0.9 0.00 0.00 0.00 75 1009.6
20260504080938 57 349 0.9 0.9 0.00 0.00 0.00 74 1009.7
20260504080435 57 335 0.0 1.7 0.00 0.00 0.00 74 1009.7
20260504070403 59 331 0.0 1.7 0.00 0.00 0.00 71 1009.4
20260504050750 65 33 0.0 0.0 0.00 0.00 0.00 59 1009.4
20260504050247 66 33 0.0 0.0 0.00 0.00 0.00 59 1009.1
20260504045744 66 33 0.0 0.0 0.00 0.00 0.00 59 1009.2
20260504045239 66 33 0.0 0.0 0.00 0.00 0.00 58 1008.9
20260504044737 66 33 0.0 0.0 0.00 0.00 0.00 57 1009.1
20260504044234 67 33 0.0 1.7 0.00 0.00 0.00 56 1009.1
20260504043731 67 35 0.0 0.0 0.00 0.00 0.00 56 1009.1
20260504043228 67 35 0.0 0.0 0.00 0.00 0.00 56 1009.1
20260504042726 68 35 0.0 0.0 0.00 0.00 0.00 55 1009.1
20260504042222 68 35 0.0 0.0 0.00 0.00 0.00 55 1009.0
20260504041718 68 35 0.0 0.0 0.00 0.00 0.00 55 1009.1
20260504041214 68 35 0.0 0.0 0.00 0.00 0.00 55 1008.9
20260504040711 69 35 0.0 0.0 0.00 0.00 0.00 55 1008.9
20260504040208 69 35 0.0 0.0 0.00 0.00 0.00 54 1008.9
20260504035704 70 35 0.0 0.0 0.00 0.00 0.00 54 1008.8
20260504035202 70 35 0.0 0.0 0.00 0.00 0.00 53 1008.6
20260504034659 71 35 0.0 0.0 0.00 0.00 0.00 53 1008.6
20260504034156 72 35 0.0 0.0 0.00 0.00 0.00 52 1008.6
20260504033654 72 35 0.0 0.0 0.00 0.00 0.00 52 1008.7
20260504033151 73 102 0.0 0.0 0.00 0.00 0.00 51 1008.6
20260504032647 74 102 0.0 0.0 0.00 0.00 0.00 50 1008.5
20260504032145 74 102 0.0 0.0 0.00 0.00 0.00 49 1008.5
20260504031642 75 267 0.0 0.0 0.00 0.00 0.00 48 1008.5
20260504031138 76 267 0.0 0.0 0.00 0.00 0.00 46 1008.5
20260504030635 77 267 0.0 0.0 0.00 0.00 0.00 46 1008.6
20260504030131 78 267 0.0 0.0 0.00 0.00 0.00 44 1008.5
20260504025628 79 267 0.0 0.0 0.00 0.00 0.00 44 1008.6
20260504025125 80 267 0.0 0.0 0.00 0.00 0.00 44 1008.5
20260504024622 80 232 0.0 0.0 0.00 0.00 0.00 43 1008.3
20260504024119 81 232 0.0 0.0 0.00 0.00 0.00 42 1008.3
20260504023616 81 232 0.0 0.0 0.00 0.00 0.00 41 1008.4
20260504023111 81 232 0.0 0.9 0.00 0.00 0.00 41 1008.3
20260504022608 82 232 0.0 2.6 0.00 0.00 0.00 41 1008.3
20260504022104 82 252 0.0 1.7 0.00 0.00 0.00 40 1008.4
20260504021602 83 206 0.0 3.5 0.00 0.00 0.00 41 1008.1
20260504021058 84 253 1.7 1.7 0.00 0.00 0.00 40 1008.3
20260504020555 84 169 0.0 1.7 0.00 0.00 0.00 34 1008.1
20260504020051 84 186 0.0 0.9 0.00 0.00 0.00 34 1008.2
20260504015548 85 278 0.0 2.6 0.00 0.00 0.00 33 1008.1
20260504015044 85 252 0.0 2.6 0.00 0.00 0.00 33 1008.4
20260504014540 85 26 0.0 2.6 0.00 0.00 0.00 33 1008.4
20260504014038 85 192 0.0 2.6 0.00 0.00 0.00 34 1008.4
20260504013535 85 229 1.7 4.3 0.00 0.00 0.00 33 1008.5
20260504013032 86 267 0.0 2.6 0.00 0.00 0.00 34 1008.5
20260504012530 86 2 0.0 1.7 0.00 0.00 0.00 33 1008.5
20260504012028 86 244 0.0 2.6 0.00 0.00 0.00 35 1008.6
20260504011524 86 206 0.0 1.7 0.00 0.00 0.00 39 1008.6
20260504011020 86 282 2.6 3.5 0.00 0.00 0.00 39 1008.6
20260504010516 86 164 1.7 2.6 0.00 0.00 0.00 39 1008.7